Weather Roundup
Issued by NWS

Home | Current Version | Previous Version | Text Only | Print | Product List | Glossary On
Versions: 1 2 3 4 5 6 7 8 9 10 11 12 13 14 15 16 17 18 19 20 21 22 23 24 25 26 27 28 29 30 31 32 33 34 35 36 37 38 39 40 41 42 43 44 45 46 47 48 49 50
000
NZUS93 KARX 251210
HRRWXR

CURRENT HOURLY OBSERVATIONS ACROSS
MUCH OF THE UPPER MISSISSIPPI VALLEY
NATIONAL WEATHER SERVICE LA CROSSE WI
600 AM CST SUN JAN 25 2015


...SOUTHEAST MINNESOTA...


CITY           SKY/WX    TMP DP  RH WIND       PRES   REMARKS
ROCHESTER      CLOUDY    31  28  89 NE18      29.77R WCI  19
ROCHESTER/MAYO CLOUDY    31  27  84 NE7       29.78R WCI  24
WINONA         CLOUDY    32  28  86 E10       29.82R WCI  24
AUSTIN         MIX PCPN  32  30  93 NE13      29.75R WCI  22
ALBERT LEA     LGT SNOW  32  30  93 N14       29.76R WCI  22
DODGE CENTER   CLOUDY    28  27  93 NE17      29.78R WCI  16
PRESTON        MIX PCPN  29  27  93 NE15G21   29.76R WCI  18
OWATONNA       CLOUDY    30  25  80 N15       29.81R WCI  19
FARIBAULT      CLOUDY    28  25  86 N15G23    29.83R WCI  17
$$

...ELSEWHERE IN MINNESOTA...


CITY           SKY/WX    TMP DP  RH WIND       PRES   REMARKS
MINNEAPOLIS    CLOUDY    25  17  72 N17G26    29.88R WCI  12
INTNL FALLS    CLOUDY     3  -5  69 E7        30.01R WCI  -9
DULUTH         FLURRIES  17  12  80 NE9       29.93R WCI   6
RED WING       CLOUDY    28  21  74 NE9       29.85R WCI  20
REDWOOD FALLS  CLOUDY    31  28  89 NE9       29.86R WCI  23
MANKATO        CLOUDY    30  25  80 NE18      29.83R WCI  18
WORTHINGTON    CLOUDY    32  28  86 N15       29.81R WCI  22
FAIRMONT       CLOUDY    34  28  80 N14       29.79R WCI  24
$$

...SOUTHWEST WISCONSIN...


CITY           SKY/WX    TMP DP  RH WIND       PRES   REMARKS
LA CROSSE      CLOUDY    30  23  75 E9G20     29.81R WCI  22
PRAIRIE DU CHI LGT SNOW  32  28  84 NE10G17   29.75R WCI  24
BOSCOBEL       FLURRIES  29  23  78 E13G23    29.78R WCI  19
LONE ROCK      CLOUDY    26  20  77 E15       29.80R WCI  14
PLATTEVILLE    CLOUDY    30  27  88 NE22G30   29.71R WCI  17
FORT MC COY    CLOUDY    25  20  80 E12       29.83R WCI  15
CAMP DOUGLAS   CLOUDY    23  19  84 E12G21    29.83R WCI  11
VIROQUA        CLOUDY    26  25  97 E15       29.77R WCI  13
WIS DELLS      CLOUDY    22  17  81 NE13G20   29.81R WCI  10
$$

...ELSEWHERE IN WISCONSIN...


CITY           SKY/WX    TMP DP  RH WIND       PRES   REMARKS
MILWAUKEE      LGT SNOW  28  22  78 NE21G32   29.79R WCI  15
MADISON        LGT SNOW  25  20  81 NE17      29.79R WCI  12
GREEN BAY      CLOUDY    20  13  74 NE24G31   29.90R WCI   3
EAU CLAIRE     CLOUDY    24  16  71 NE13      29.86R WCI  12
BLACK RVR FLS  CLOUDY    28  22  77 E7        29.82R WCI  21
MEDFORD        CLOUDY    15   9  76 NE9       29.84R WCI   3
WAUSAU         CLOUDY    17   9  70 NE12      29.85R WCI   4
WIS RAPIDS     CLOUDY    20  11  68 E15G21    29.86R WCI   6
MARSHFIELD     CLOUDY    22  13  68 E16       29.83R WCI   8
RICE LAKE      CLOUDY    17  10  77 NE15      29.91R WCI   2
$$

...NORTHEAST IOWA...


CITY           SKY/WX    TMP DP  RH WIND       PRES   REMARKS
DECORAH        LGT RAIN  32  30  93 NE13G22   29.73R WCI  22
MASON CITY     LGT SNOW  33  31  92 NE17G26   29.73R FOG     WCI  22
CHARLES CITY   LGT SNOW  34  34 100 NE15G23   29.71R WCI  24
OELWEIN        MIX PCPN  34  32  93 NE18G25   29.68R WCI  23
$$

...ELSEWHERE IN IOWA...


CITY           SKY/WX    TMP DP  RH WIND       PRES   REMARKS
DES MOINES     CLOUDY    38  34  85 N12       29.62R WCI  30
IOWA CITY      LGT RAIN  35  33  92 NE13      29.63R FOG     WCI  26
FORT DODGE     CLOUDY    34  30  86 N10       29.70R WCI  26
$$

...NORTHERN ILLINOIS...


CITY           SKY/WX    TMP DP  RH WIND       PRES   REMARKS
CHICAGO-OHARE  CLOUDY    33  31  92 NE20G29   29.70S WCI  21
CHICAGO-MIDWAY CLOUDY    37  34  89 NE9       29.70S WCI  30
MOLINE         LGT RAIN  35  32  88 NE15      29.62R FOG     WCI  25
ROCKFORD       CLOUDY    31  25  78 NE15G28   29.73R WCI  20
PEORIA         LGT RAIN  37  34  89 E7        29.60R FOG     WCI  32
$$

NOTE: "FAIR" INDICATES FEW OR NO CLOUDS BELOW 12,000 FEET WITH NO
SIGNIFICANT WEATHER AND/OR OBSTRUCTIONS TO VISIBILITY. WIND
SPEEDS ARE IN MILES-PER-HOUR.



USA.gov is the U.S. government's official web portal to all federal, state and local government web resources and services.